Location: Cointrin
(46.2167°N, 6.1167°E)
Time: 15:04:39
(UTC+00:00)

PSLV R/B - Pass Details

Date: 08 February 2023
Orbit: 491 x 557 km, 97.8° (Epoch: 21 March)

Event Time Altitude Azimuth Distance (km) Brightness Sun altitude
Rises 18:17:41 0° 167° (SSE) 2,575 7.2 -15.5°
Reaches altitude 10° 18:19:44 10° 168° (SSE) 1,705 6.3 -15.8°
Maximum altitude 18:23:24 82° 256° (WSW) 520 3.7 -16.5°
Drops below altitude 10° 18:27:11 10° 345° (NNW) 1,756 6.5 -17.1°
Sets 18:29:19 0° 347° (NNW) 2,661 7.4 -17.5°
